H1 CPF 2 NER 2025 5 16 9 136 01 glonass142 H2 2001801 9142 45358 2025 5 16 0 0 0 2025 5 19 23 45 0 900 1 1 0 0 0 1 H9 10 0 60811 0.00000 0 1612721.410 -25421471.172 -1162119.185 10 0 60811 900.00000 0 1467936.787 -25081165.122 -4350481.904 10 0 60811 1800.00000 0 1371662.057 -24344449.588 -7454224.875 10 0 60811 2700.00000 0 1376086.708 -23232271.285 -10412968.305 10 0 60811 3600.00000 0 1528315.280 -21777819.519 -13169150.663 10 0 60811 4500.00000 0 1868129.763 -20025205.277 -15669154.650 10 0 60811 5400.00000 0 2426066.192 -18027699.342 -17864355.190 10 0 60811 6300.00000 0 3221887.883 -15845603.477 -19712068.611 10 0 60811 7200.00000 0 4263520.886 -13543844.199 -21176384.296 10 0 60811 8100.00000 0 5546497.495 -11189390.075 -22228862.669 10 0 60811 9000.00000 0 7053932.153 -8848600.659 -22849086.155 10 0 60811 9900.00000 0 8757031.493 -6584617.824 -23025052.746 10 0 60811 10800.00000 0 10616117.797 -4454908.055 -22753404.990 10 0 60811 11700.00000 0 12582123.531 -2509057.669 -22039490.380 10 0 60811 12600.00000 0 14598494.827 -786912.133 -20897252.367 10 0 60811 13500.00000 0 16603424.665 682864.060 -19348954.456 10 0 60811 14400.00000 0 18532322.669 1883748.178 -17424742.946 10 0 60811 15300.00000 0 20320418.487 2811802.110 -15162056.984 10 0 60811 16200.00000 0 21905390.074 3475580.444 -12604897.482 10 0 60811 17100.00000 0 23229907.152 3895509.357 -9802969.172 10 0 60811 18000.00000 0 24243983.531 4102764.049 -6810712.582 10 0 60811 18900.00000 0 24907040.038 4137693.532 -3686244.858 10 0 60811 19800.00000 0 25189591.857 4047860.477 -490230.150 10 0 60811 20700.00000 0 25074489.841 3885779.947 2715298.277 10 0 60811 21600.00000 0 24557664.047 3706453.372 5868141.185 10 0 60811 22500.00000 0 23648338.666 3564802.593 8907138.304 10 0 60811 23400.00000 0 22368709.534 3513112.782 11773351.630 10 0 60811 24300.00000 0 20753097.961 3598592.550 14411204.295 10 0 60811 25200.00000 0 18846616.273 3861154.367 16769553.198 10 0 60811 26100.00000 0 16703400.753 4331509.094 18802675.059 10 0 60811 27000.00000 0 14384485.413 5029655.112 20471147.360 10 0 60811 27900.00000 0 11955404.746 5963826.009 21742607.785 10 0 60811 28800.00000 0 9483624.587 7129941.634 22592378.086 10 0 60811 29700.00000 0 7035907.154 8511586.397 23003940.855 10 0 60811 30600.00000 0 4675718.805 10080516.856 22969260.381 10 0 60811 31500.00000 0 2460787.287 11797678.643 22488941.504 10 0 60811 32400.00000 0 440908.980 13614691.671 21572223.257 10 0 60811 33300.00000 0 -1343903.634 15475743.063 20236806.999 10 0 60811 34200.00000 0 -2864857.986 17319810.074 18508521.670 10 0 60811 35100.00000 0 -4105341.808 19083121.362 16420831.806 10 0 60811 36000.00000 0 -5061368.397 20701754.593 14014196.843 10 0 60811 36900.00000 0 -5741488.630 22114262.224 11335293.254 10 0 60811 37800.00000 0 -6166173.880 23264215.657 8436113.766 10 0 60811 38700.00000 0 -6366696.196 24102560.854 5372960.584 10 0 60811 39600.00000 0 -6383553.398 24589685.972 2205351.897 10 0 60811 40500.00000 0 -6264506.091 24697113.345 -1005137.004 10 0 60811 41400.00000 0 -6062310.242 24408743.732 -4196075.167 10 0 60811 42300.00000 0 -5832242.064 23721599.505 -7305395.924 10 0 60811 43200.00000 0 -5629520.952 22646034.616 -10272610.866 10 0 60811 44100.00000 0 -5506740.627 21205401.733 -13039993.387 10 0 60811 45000.00000 0 -5511418.402 19435190.009 -15553707.919 10 0 60811 45900.00000 0 -5683767.334 17381669.332 -17764862.255 10 0 60811 46800.00000 0 -6054786.568 15100097.759 -19630462.001 10 0 60811 47700.00000 0 -6644751.472 12652567.257 -21114248.351 10 0 60811 48600.00000 0 -7462168.113 10105577.910 -22187402.898 10 0 60811 49500.00000 0 -8503236.861 7527441.960 -22829105.997 10 0 60811 50400.00000 0 -9751848.265 4985626.009 -23026938.165 10 0 60811 51300.00000 0 -11180111.881 2544141.935 -22777117.162 10 0 60811 52200.00000 0 -12749396.246 261094.733 -22084566.605 10 0 60811 53100.00000 0 -14411836.676 -1813511.232 -20962815.197 10 0 60811 54000.00000 0 -16112247.944 -3639617.211 -19433728.837 10 0 60811 54900.00000 0 -17790361.895 -5188530.632 -17527081.069 10 0 60811 55800.00000 0 -19383296.381 -6443863.417 -15279970.364 10 0 60811 56700.00000 0 -20828152.165 -7401950.511 -12736095.651 10 0 60811 57600.00000 0 -22064629.048 -8071732.861 -9944904.230 10 0 60811 58500.00000 0 -23037551.575 -8474111.469 -6960628.736 10 0 60811 59400.00000 0 -23699198.431 -8640801.389 -3841231.970 10 0 60811 60300.00000 0 -24011337.876 -8612735.389 -647280.239 10 0 60811 61200.00000 0 -23946883.852 -8438085.888 2559232.692 10 0 60811 62100.00000 0 -23491103.353 -8169989.697 5716088.038 10 0 60811 63000.00000 0 -22642324.480 -7864072.399 8762047.370 10 0 60811 63900.00000 0 -21412115.516 -7575877.463 11638037.477 10 0 60811 64800.00000 0 -19824927.494 -7358308.973 14288291.882 10 0 60811 65700.00000 0 -17917215.042 -7259196.020 16661427.148 10 0 60811 66600.00000 0 -15736071.994 -7319081.557 18711433.559 10 0 60811 67500.00000 0 -13337438.228 -7569328.871 20398561.569 10 0 60811 68400.00000 0 -10783951.823 -8030625.506 21690087.504 10 0 60811 69300.00000 0 -8142535.141 -8711947.759 22560944.362 10 0 60811 70200.00000 0 -5481814.243 -9610029.717 22994206.035 10 0 60811 71100.00000 0 -2869477.740 -10709359.841 22981416.025 10 0 60811 72000.00000 0 -369683.672 -11982706.189 22522754.398 10 0 60811 72900.00000 0 1959379.023 -13392149.476 21627039.641 10 0 60811 73800.00000 0 4067674.226 -14890581.999 20311564.941 10 0 60811 74700.00000 0 5915157.670 -16423610.977 18601771.392 10 0 60811 75600.00000 0 7473195.498 -17931787.813 16530763.576 10 0 60811 76500.00000 0 8725503.931 -19353070.862 14138675.939 10 0 60811 77400.00000 0 9668571.253 -20625419.107 11471901.318 10 0 60811 78300.00000 0 10311544.968 -21689408.205 8582195.779 10 0 60811 79200.00000 0 10675589.278 -22490758.911 5525676.534 10 0 60811 80100.00000 0 10792740.377 -22982671.112 2361732.151 10 0 60811 81000.00000 0 10704308.320 -23127864.441 -848133.748 10 0 60811 81900.00000 0 10458893.567 -22900238.590 -4041502.472 10 0 60811 82800.00000 0 10110102.785 -22286082.228 -7156259.982 10 0 60811 83700.00000 0 9714061.412 -21284778.476 -10131811.813 10 0 60811 84600.00000 0 9326829.231 -19908976.195 -12910268.739 10 0 60811 85500.00000 0 9001829.342 -18184218.972 -15437579.272 10 0 60812 0.00000 0 8787400.330 -16148046.898 -17664586.069 10 0 60812 900.00000 0 8724575.991 -13848607.186 -19547986.393 10 0 60812 1800.00000 0 8845187.499 -11342834.321 -21051174.747 10 0 60812 2700.00000 0 9170368.390 -8694272.088 -22144955.294 10 0 60812 3600.00000 0 9709526.271 -5970630.927 -22808107.354 10 0 60812 4500.00000 0 10459824.749 -3241181.377 -23027794.613 10 0 60812 5400.00000 0 11406197.716 -574092.106 -22799810.293 10 0 60812 6300.00000 0 12521895.489 1966177.054 -22128654.004 10 0 60812 7200.00000 0 13769539.974 4321319.165 -21027439.189 10 0 60812 8100.00000 0 15102644.584 6441360.459 -19517633.268 10 0 60812 9000.00000 0 16467535.103 8286487.161 -17628635.813 10 0 60812 9900.00000 0 17805590.850 9828444.002 -15397203.040 10 0 60812 10800.00000 0 19055712.018 11051447.566 -12866729.963 10 0 60812 11700.00000 0 20156909.521 11952577.984 -10086404.165 10 0 60812 12600.00000 0 21050908.519 12541634.234 -7110247.774 10 0 60812 13500.00000 0 21684656.122 12840460.875 -3996066.345 10 0 60812 14400.00000 0 22012627.871 12881776.103 -804325.231 10 0 60812 15300.00000 0 21998835.915 12707551.922 2403024.534 10 0 60812 16200.00000 0 21618454.489 12367015.892 5563747.860 10 0 60812 17100.00000 0 20858994.260 11914359.701 8616531.315 10 0 60812 18000.00000 0 19720976.121 11406251.897 11502169.473 10 0 60812 18900.00000 0 18218075.964 10899260.144 14164708.992 10 0 60812 19800.00000 0 16376734.008 10447291.874 16552528.574 10 0 60812 20700.00000 0 14235244.579 10099161.232 18619334.236 10 0 60812 21600.00000 0 11842363.713 9896384.665 20325051.238 10 0 60812 22500.00000 0 9255491.814 9871297.775 21636596.048 10 0 60812 23400.00000 0 6538506.100 10045572.571 22528514.022 10 0 60812 24300.00000 0 3759331.835 10429197.430 22983471.060 10 0 60812 25200.00000 0 987352.016 11019962.930 22992590.128 10 0 60812 26100.00000 0 -1709238.162 11803475.612 22555626.276 10 0 60812 27000.00000 0 -4266023.521 12753699.879 21680976.681 10 0 60812 27900.00000 0 -6624801.333 13834006.293 20385525.069 10 0 60812 28800.00000 0 -8735753.900 14998683.355 18694322.889 10 0 60812 29700.00000 0 -10559271.803 16194850.439 16640112.528 10 0 60812 30600.00000 0 -12067352.569 17364692.558 14262700.831 10 0 60812 31500.00000 0 -13244516.876 18447923.807 11608194.130 10 0 60812 32400.00000 0 -14088204.442 19384376.321 8728108.801 10 0 60812 33300.00000 0 -14608633.369 20116605.855 5678373.980 10 0 60812 34200.00000 0 -14828129.206 20592403.888 2518245.535 10 0 60812 35100.00000 0 -14779952.396 20767109.660 -690847.573 10 0 60812 36000.00000 0 -14506674.079 20605623.684 -3886501.811 10 0 60812 36900.00000 0 -14058169.471 20084036.588 -7006558.502 10 0 60812 37800.00000 0 -13489314.391 19190803.344 -9990319.663 10 0 60812 38700.00000 0 -12857483.224 17927412.125 -12779735.775 10 0 60812 39600.00000 0 -12219955.068 16308518.450 -15320541.469 10 0 60812 40500.00000 0 -11631338.658 14361537.993 -17563316.393 10 0 60812 41400.00000 0 -11141125.737 12125714.292 -19464450.108 10 0 60812 42300.00000 0 -10791476.934 9650699.889 -20986991.989 10 0 60812 43200.00000 0 -10615334.098 6994709.768 -22101369.590 10 0 60812 44100.00000 0 -10634939.033 4222323.920 -22785961.726 10 0 60812 45000.00000 0 -10860821.174 1402030.429 -23027515.457 10 0 60812 45900.00000 0 -11291296.825 -1396388.883 -22821399.349 10 0 60812 46800.00000 0 -11912500.865 -4104521.818 -22171688.535 10 0 60812 47700.00000 0 -12698949.399 -6657927.891 -21091080.348 10 0 60812 48600.00000 0 -13614609.417 -8998571.613 -19600642.520 10 0 60812 49500.00000 0 -14614430.242 -11076986.637 -17729399.056 10 0 60812 50400.00000 0 -15646272.117 -12854081.737 -15513762.016 10 0 60812 51300.00000 0 -16653150.594 -14302514.628 -12996820.323 10 0 60812 52200.00000 0 -17575702.103 -15407577.752 -10227499.474 10 0 60812 53100.00000 0 -18354766.739 -16167560.527 -7259608.587 10 0 60812 54000.00000 0 -18933979.378 -16593574.518 -4150793.400 10 0 60812 54900.00000 0 -19262259.860 -16708850.454 -961415.696 10 0 60812 55800.00000 0 -19296097.225 -16547538.106 2246618.845 10 0 60812 56700.00000 0 -19001531.668 -16153060.853 5411061.460 10 0 60812 57600.00000 0 -18355750.633 -15576095.304 8470526.341 10 0 60812 58500.00000 0 -17348231.690 -14872261.906 11365678.416 10 0 60812 59400.00000 0 -15981383.855 -14099624.410 14040379.988 10 0 60812 60300.00000 0 -14270660.024 -13316103.752 16442774.237 10 0 60812 61200.00000 0 -12244135.194 -12576915.287 18526285.040 10 0 60812 62100.00000 0 -9941567.367 -11932137.017 20250514.305 10 0 60812 63000.00000 0 -7412979.336 -11424510.776 21582020.115 10 0 60812 63900.00000 0 -4716819.370 -11087568.415 22494961.272 10 0 60812 64800.00000 0 -1917776.042 -10944161.408 22971596.351 10 0 60812 65700.00000 0 915663.365 -11005455.459 23002628.034 10 0 60812 66600.00000 0 3713810.866 -11270432.351 22587386.220 10 0 60812 67500.00000 0 6408425.731 -11725920.246 21733846.262 10 0 60812 68400.00000 0 8935303.768 -12347151.728 20458481.583 10 0 60812 69300.00000 0 11236701.455 -13098826.840 18785952.828 10 0 60812 70200.00000 0 13263495.067 -13936637.334 16748638.726 10 0 60812 71100.00000 0 14976985.622 -14809188.840 14386016.762 10 0 60812 72000.00000 0 16350274.854 -15660240.803 11743904.700 10 0 60812 72900.00000 0 17369155.057 -16431170.305 8873576.873 10 0 60812 73800.00000 0 18032475.839 -17063556.079 5830771.714 10 0 60812 74700.00000 0 18351972.564 -17501773.490 2674609.554 10 0 60812 75600.00000 0 18351564.012 -17695490.359 -533558.297 10 0 60812 76500.00000 0 18066149.155 -17601957.350 -3731346.491 10 0 60812 77400.00000 0 17539954.308 -17187994.992 -6856554.704 10 0 60812 78300.00000 0 16824501.042 -16431592.140 -9848384.313 10 0 60812 79200.00000 0 15976281.434 -15323047.009 -12648628.189 10 0 60812 80100.00000 0 15054239.714 -13865601.328 -15202809.557 10 0 60812 81000.00000 0 14117167.515 -12075539.676 -17461247.090 10 0 60812 81900.00000 0 13221123.493 -9981748.707 -19380024.999 10 0 60812 82800.00000 0 12416986.839 -7624753.894 -20921848.964 10 0 60812 83700.00000 0 11748248.315 -5055273.414 -22056771.250 10 0 60812 84600.00000 0 11249132.070 -2332349.037 -22762771.119 10 0 60812 85500.00000 0 10943127.353 478868.373 -23026179.594 10 0 60813 0.00000 0 10841991.618 3309586.632 -22841940.816 10 0 60813 900.00000 0 10945266.571 6089992.481 -22213705.218 10 0 60813 1800.00000 0 11240327.037 8751911.962 -21153753.465 10 0 60813 2700.00000 0 11702959.836 11231405.911 -19682752.677 10 0 60813 3600.00000 0 12298447.865 13471189.548 -17829350.027 10 0 60813 4500.00000 0 12983113.137 15422777.839 -15629611.802 10 0 60813 5400.00000 0 13706253.267 17048268.025 -13126318.882 10 0 60813 6300.00000 0 14412389.426 18321686.209 -10368132.387 10 0 60813 7200.00000 0 15043730.613 19229843.027 -7408645.824 10 0 60813 8100.00000 0 15542750.041 19772664.039 -4305342.240 10 0 60813 9000.00000 0 15854764.713 19962982.461 -1118476.776 10 0 60813 9900.00000 0 15930409.154 19825804.329 2090093.441 10 0 60813 10800.00000 0 15727898.756 19397078.280 5258109.190 10 0 60813 11700.00000 0 15214987.115 18722022.824 8324115.417 10 0 60813 12600.00000 0 14370534.630 17853082.347 11228650.396 10 0 60813 13500.00000 0 13185622.016 16847598.504 13915394.825 10 0 60813 14400.00000 0 11664161.436 15765295.288 16332258.870 10 0 60813 15300.00000 0 9822978.997 14665683.576 18432386.482 10 0 60813 16200.00000 0 7691364.289 13605494.074 20175058.116 10 0 60813 17100.00000 0 5310104.776 12636246.045 21526475.054 10 0 60813 18000.00000 0 2730044.090 11802053.398 22460410.758 10 0 60813 18900.00000 0 10222.925 11137759.594 22958717.299 10 0 60813 19800.00000 0 -2784321.693 10667479.115 23011677.451 10 0 60813 20700.00000 0 -5585008.758 10403606.295 22618195.841 10 0 60813 21600.00000 0 -8322317.001 10346332.920 21785825.361 10 0 60813 22500.00000 0 -10928433.184 10483694.904 20530627.933 10 0 60813 23400.00000 0 -13339836.209 10792146.388 18876871.669 10 0 60813 24300.00000 0 -15499710.566 11237637.566 16856569.413 10 0 60813 25200.00000 0 -17360089.418 11777151.498 14508866.638 10 0 60813 26100.00000 0 -18883638.433 12360635.695 11879289.584 10 0 60813 27000.00000 0 -20045006.140 12933247.485 9018867.370 10 0 60813 27900.00000 0 -20831684.422 13437818.586 5983144.484 10 0 60813 28800.00000 0 -21244343.109 13817434.671 2831102.491 10 0 60813 29700.00000 0 -21296624.654 14018020.432 -375988.085 10 0 60813 30600.00000 0 -21014407.669 13990820.057 -3575763.085 10 0 60813 31500.00000 0 -20434570.600 13694667.126 -6705983.366 10 0 60813 32400.00000 0 -19603308.089 13097946.664 -9705752.300 10 0 60813 33300.00000 0 -18574071.638 12180165.032 -12516707.555 10 0 60813 34200.00000 0 -17405222.160 10933059.928 -15084163.095 10 0 60813 35100.00000 0 -16157494.214 9361202.339 -17358178.461 10 0 60813 36000.00000 0 -14891379.573 7482063.782 -19294534.009 10 0 60813 36900.00000 0 -13664541.007 5325544.959 -20855592.859 10 0 60813 37800.00000 0 -12529365.601 2932984.607 -22011032.746 10 0 60813 38700.00000 0 -11530760.747 355689.270 -22738433.759 10 0 60813 39600.00000 0 -10704285.402 -2346955.208 -23023710.883 10 0 60813 40500.00000 0 -10074694.771 -5109712.210 -22861383.402 10 0 60813 41400.00000 0 -9654958.984 -7863970.546 -22254676.400 10 0 60813 42300.00000 0 -9445796.183 -10540365.680 -21215452.817 10 0 60813 43200.00000 0 -9435738.748 -13071437.436 -19763977.762 10 0 60813 44100.00000 0 -9601728.918 -15394214.182 -17928519.882 10 0 60813 45000.00000 0 -9910217.799 -17452616.594 -15744797.735 10 0 60813 45900.00000 0 -10318720.612 -19199581.663 -13255281.999 10 0 60813 46800.00000 0 -10777761.878 -20598819.317 -10508367.131 10 0 60813 47700.00000 0 -11233127.847 -21626129.346 -7557428.664 10 0 60813 48600.00000 0 -11628330.576 -22270224.724 -4459784.572 10 0 60813 49500.00000 0 -11907179.182 -22533028.082 -1275580.978 10 0 60813 50400.00000 0 -12016349.362 -22429430.116 1933375.898 10 0 60813 51300.00000 0 -11907842.353 -21986521.286 5104818.708 10 0 60813 52200.00000 0 -11541229.285 -21242330.102 8177225.480 10 0 60813 53100.00000 0 -10885585.971 -20244121.949 11091010.135 10 0 60813 54000.00000 0 -9921036.259 -19046330.562 13789674.025 10 0 60813 54900.00000 0 -8639838.539 -17708209.468 16220896.476 10 0 60813 55800.00000 0 -7046969.152 -16291302.121 18337543.540 10 0 60813 56700.00000 0 -5160177.406 -14856836.716 20098576.053 10 0 60813 57600.00000 0 -3009508.892 -13463154.534 21469840.051 10 0 60813 58500.00000 0 -636315.744 -12163278.972 22424724.918 10 0 60813 59400.00000 0 1908206.255 -11002726.403 22944677.132 10 0 60813 60300.00000 0 4564894.426 -10017649.736 23019560.121 10 0 60813 61200.00000 0 7268833.310 -9233391.782 22647853.445 10 0 60813 62100.00000 0 9951815.757 -8663508.431 21836687.390 10 0 60813 63000.00000 0 12544950.239 -8309302.237 20601711.908 10 0 60813 63900.00000 0 14981307.299 -8159885.825 18966801.769 10 0 60813 64800.00000 0 17198496.164 -8192772.517 16963602.807 10 0 60813 65700.00000 0 19141065.033 -8374969.551 14630927.024 10 0 60813 66600.00000 0 20762625.400 -8664528.140 12014007.322 10 0 60813 67500.00000 0 22027611.937 -9012485.267 9163625.462 10 0 60813 68400.00000 0 22912604.304 -9365115.369 6135129.491 10 0 60813 69300.00000 0 23407155.322 -9666396.631 2987359.412 10 0 60813 70200.00000 0 23514090.597 -9860587.216 -218498.065 10 0 60813 71100.00000 0 23249266.832 -9894801.698 -3420103.132 10 0 60813 72000.00000 0 22640799.009 -9721477.668 -6555181.020 10 0 60813 72900.00000 0 21727789.115 -9300626.909 -9562740.196 10 0 60813 73800.00000 0 20558610.357 -8601774.535 -12384266.055 10 0 60813 74700.00000 0 19188819.631 -7605502.670 -14964865.982 10 0 60813 75600.00000 0 17678786.853 -6304532.088 -17254342.778 10 0 60813 76500.00000 0 16091141.555 -4704294.800 -19208175.055 10 0 60813 77400.00000 0 14488144.830 -2822972.309 -20788385.170 10 0 60813 78300.00000 0 12929097.506 -690996.794 -21964277.807 10 0 60813 79200.00000 0 11467893.635 1649964.778 -22713035.043 10 0 60813 80100.00000 0 10150821.935 4148501.867 -23020156.648 10 0 60813 81000.00000 0 9014707.015 6745365.256 -22879737.550 10 0 60813 81900.00000 0 8085467.682 9375706.721 -22294577.534 10 0 60813 82800.00000 0 7377151.881 11971560.602 -21276121.523 10 0 60813 83700.00000 0 6891487.599 14464464.381 -19844231.930 10 0 60813 84600.00000 0 6617967.398 16788109.644 -18026797.807 10 0 60813 85500.00000 0 6534461.709 18880913.490 -15859188.523 10 0 60814 0.00000 0 6608333.869 20688403.672 -13383562.939 10 0 60814 900.00000 0 6798008.855 22165319.593 -10648046.177 10 0 60814 1800.00000 0 7054928.451 23277339.808 -7705793.429 10 0 60814 2700.00000 0 7325809.641 24002367.926 -4613954.708 10 0 60814 3600.00000 0 7555110.094 24331321.539 -1432563.999 10 0 60814 4500.00000 0 7687596.050 24268393.141 1776626.661 10 0 60814 5400.00000 0 7670903.677 23830772.884 4951345.137 10 0 60814 6300.00000 0 7457985.360 23047845.766 8030005.830 10 0 60814 7200.00000 0 7009337.297 21959897.702 10952901.456 10 0 60814 8100.00000 0 6294914.150 20616385.455 13663356.988 10 0 60814 9000.00000 0 5295649.656 19073843.363 16108823.614 10 0 60814 9900.00000 0 4004518.706 17393514.789 18241891.921 10 0 60814 10800.00000 0 2427095.589 15638807.395 20021205.249 10 0 60814 11700.00000 0 581584.052 13872678.357 21412256.194 10 0 60814 12600.00000 0 -1501683.212 12155058.312 22388051.507 10 0 60814 13500.00000 0 -3781256.138 10540420.927 22929633.128 10 0 60814 14400.00000 0 -6206049.268 9075598.791 23026445.750 10 0 60814 15300.00000 0 -8717234.051 7797936.014 22676543.993 10 0 60814 16200.00000 0 -11250464.390 6733853.932 21886635.122 10 0 60814 17100.00000 0 -13738344.453 5897889.217 20671956.129 10 0 60814 18000.00000 0 -16113037.471 5292244.175 19055986.888 10 0 60814 18900.00000 0 -18308908.129 4906867.752 17070004.108 10 0 60814 19800.00000 0 -20265089.317 4720063.715 14752483.705 10 0 60814 20700.00000 0 -21927866.681 4699600.399 12148362.233 10 0 60814 21600.00000 0 -23252781.553 4804275.301 9308170.781 10 0 60814 22500.00000 0 -24206364.199 4985868.476 6287057.479 10 0 60814 23400.00000 0 -24767424.420 5191402.048 3143717.240 10 0 60814 24300.00000 0 -24927844.955 5365609.891 -60750.520 10 0 60814 25200.00000 0 -24692843.911 5453512.306 -3264033.702 10 0 60814 26100.00000 0 -24080694.852 5402985.793 -6403825.093 10 0 60814 27000.00000 0 -23121916.146 5167217.935 -9419041.229 10 0 60814 27900.00000 0 -21857963.752 4706942.193 -12251017.948 10 0 60814 28800.00000 0 -20339482.678 3992356.652 -14844658.488 10 0 60814 29700.00000 0 -18624191.136 3004644.210 -17149511.011 10 0 60814 30600.00000 0 -16774486.831 1737028.675 -19120754.068 10 0 60814 31500.00000 0 -14854876.501 195321.002 -20720070.496 10 0 60814 32400.00000 0 -12929336.996 -1602068.460 -21916392.688 10 0 60814 33300.00000 0 -11058718.806 -3624653.212 -22686504.966 10 0 60814 34200.00000 0 -9298300.791 -5830908.249 -23015491.653 10 0 60814 35100.00000 0 -7695598.194 -8169779.386 -22897022.623 10 0 60814 36000.00000 0 -6288515.019 -10582601.818 -22333471.253 10 0 60814 36900.00000 0 -5103917.170 -13005348.300 -21335862.956 10 0 60814 37800.00000 0 -4156684.915 -15371113.617 -19923655.649 10 0 60814 38700.00000 0 -3449282.950 -17612732.191 -18124356.714 10 0 60814 39600.00000 0 -2971864.623 -19665420.013 -15972984.060 10 0 60814 40500.00000 0 -2702904.422 -21469331.152 -13511381.859 10 0 60814 41400.00000 0 -2610330.656 -22971922.564 -10787404.309 10 0 60814 42300.00000 0 -2653109.310 -24130028.920 -7853983.370 10 0 60814 43200.00000 0 -2783211.088 -24911561.260 -4768098.655 10 0 60814 44100.00000 0 -2947877.684 -25296759.035 -1589669.643 10 0 60814 45000.00000 0 -3092090.714 -25278943.776 1619608.079 10 0 60814 45900.00000 0 -3161138.392 -24864743.513 4797459.768 10 0 60814 46800.00000 0 -3103171.012 -24073779.270 7882238.288 10 0 60814 47700.00000 0 -2871636.908 -22937827.371 10814117.181 10 0 60814 48600.00000 0 -2427495.754 -21499493.244 13536246.971 10 0 60814 49500.00000 0 -1741115.553 -19810452.603 15995852.550 10 0 60814 50400.00000 0 -793772.994 -17929333.776 18145250.737 10 0 60814 51300.00000 0 421306.417 -15919329.656 19942768.900 10 0 60814 52200.00000 0 1898412.892 -13845638.684 21353547.501 10 0 60814 53100.00000 0 3619344.938 -11772841.116 22350211.705 10 0 60814 54000.00000 0 5553931.525 -9762319.252 22913399.688 10 0 60814 54900.00000 0 7661063.444 -7869828.246 23032137.890 10 0 60814 55800.00000 0 9890192.391 -6143317.818 22704056.174 10 0 60814 56700.00000 0 12183236.966 -4621094.733 21935438.692 10 0 60814 57600.00000 0 14476817.795 -3330401.799 20741109.099 10 0 60814 58500.00000 0 16704730.146 -2286472.034 19144151.721 10 0 60814 59400.00000 0 18800552.268 -1492096.934 17175473.208 10 0 60814 60300.00000 0 20700281.620 -937726.530 14873212.182 10 0 60814 61200.00000 0 22344889.505 -602096.732 12282007.322 10 0 60814 62100.00000 0 23682687.540 -453357.374 9452137.209 10 0 60814 63000.00000 0 24671406.790 -450653.226 6438547.895 10 0 60814 63900.00000 0 25279901.961 -546090.980 3299786.735 10 0 60814 64800.00000 0 25489408.571 -687008.657 96863.124 10 0 60814 65700.00000 0 25294299.569 -818450.807 -3107941.461 10 0 60814 66600.00000 0 24702308.974 -885743.850 -6252290.367 10 0 60814 67500.00000 0 23734212.578 -837061.484 -9275011.175 10 0 60814 68400.00000 0 22422978.868 -625870.252 -12117293.033 10 0 60814 69300.00000 0 20812425.749 -213150.483 -14723837.694 10 0 60814 70200.00000 0 18955439.682 430702.710 -17043941.095 10 0 60814 71100.00000 0 16911832.291 1324379.993 -19032483.887 10 0 60814 72000.00000 0 14745924.783 2474624.426 -20650811.280 10 0 60814 72900.00000 0 12523961.740 3875708.778 -21867485.025 10 0 60814 73800.00000 0 10311462.826 5509446.479 -22658893.086 10 0 60814 74700.00000 0 8170623.223 7345736.586 -23009705.471 10 0 60814 75600.00000 0 6157871.207 9343620.579 -22913167.842 10 0 60814 76500.00000 0 4321684.355 11452807.374 -22371227.679 10 0 60814 77400.00000 0 2700754.741 13615603.172 -21394491.025 10 0 60814 78300.00000 0 1322578.629 15769165.978 -20002011.045 10 0 60814 79200.00000 0 202528.208 17847990.916 -18220912.767 10 0 60814 80100.00000 0 -656557.355 19786522.854 -16085861.522 10 0 60814 81000.00000 0 -1264246.073 21521787.484 -13638385.473 10 0 60814 81900.00000 0 -1641859.501 22995931.192 -10926065.481 10 0 60814 82800.00000 0 -1821320.357 24158563.772 -8001608.115 10 0 60814 83700.00000 0 -1843551.412 24968806.298 -4921819.893 10 0 60814 84600.00000 0 -1756494.415 25396958.759 -1746502.816 10 0 60814 85500.00000 0 -1612833.738 25425717.994 1462707.158 99